International Virtual Aviation Organisation

Russian Federation and Kazakhstan MCD

 

Карточка аэропорта URMM

Внимание!
Информация на этой странице в стадии наполнения.
Если вы не увидели какой-то информации, или заметили неточность - пожалуйста сообщите нам!
Спасибо!
Команда RU-STAFF
Название аэропортаМинеральные Воды
Название аэропорта (англ.)Mineralnyye Vody
Превышение1047 ft. (319.1 m.)
Координаты44°13.608', 43°4.9799999999999'
Высота перехода900m
Эшелон переходаQFE>=704mm:FL060; QFE<704mm:FL070
Коды ответчика1050-1057
Зона ОрВДРостов-на-Дону РПИ (URRV)
Данные METARURMM 170930Z 10008MPS 9999 OVC009 02/00 Q1032 R12/190160 NOSIG RMK MT OBSC QFE745/0994
Проноз погоды (TAF)URMM 170800Z 1709/1809 09005G12MPS 9999 OVC011 TX02/1712Z TNM01/1802Z TEMPO 1709/1715 10007G14MPS 5000 BR OVC004 BECMG 1715/1717 10003G08MPS TEMPO 1717/1808 3100 BR OVC004
NOTAMshow/hide NOTAM
AWOS   TABLE

Информация о ВПП

ВПП Длина ВПП (м.) Покрытие Курс ВПП Частота ILS
123900Бетон115111.7
303900Бетон295109.3

Диспетчерские позиции

Позывной Наименование органа УВД Частота
URMM_APPМинеральные Воды-Подход119.3
URMM_R_APPМинеральные Воды-Круг120.7
URMM_TWRМинеральные Воды-Старт128.0
URMM_GNDМинеральные Воды-Руление121.9



Спутниковое изображение